Total_Precipitation_Accumulation
0.40 0.79 1.03 0.91 0.83 0.82 0.77 0.78 0.83 0.72 0.61 0.64 0.59 0.53 0.57 0.61 0.66 0.60 0.62 0.61 0.49 0.44 0.48 0.47 0.42 0.46 0.51 0.63 0.75 0.95 1.33 1.76 1.95 1.84 1.82 1.88 1.92 1.85 1.74 1.71 1.69 1.76 1.76 1.75
0.47 0.57 0.44 0.46 0.53 0.64 0.72 0.78 0.82 0.74 0.52 0.51 0.51 0.46 0.47 0.53 0.55 0.52 0.49 0.51 0.46 0.42 0.40 0.38 0.36 0.41 0.46 0.64 0.81 0.95 1.27 1.73 1.95 2.07 2.16 2.34 2.49 2.34 2.20 2.20 2.16 2.22 2.24 2.41
0.40 0.35 0.26 0.37 0.56 0.68 0.72 0.74 0.74 0.68 0.52 0.48 0.47 0.50 0.45 0.50 0.45 0.44 0.44 0.44 0.40 0.33 0.32 0.33 0.34 0.39 0.44 0.58 0.73 0.89 1.12 1.43 1.78 2.05 2.27 2.52 2.74 2.71 2.59 2.44 2.41 2.47 2.54 2.68
0.38 0.30 0.30 0.38 0.47 0.59 0.75 0.51 0.47 0.47 0.61 0.63 0.49 0.74 0.53 0.52 0.48 0.43 0.43 0.42 0.40 0.34 0.33 0.37 0.36 0.39 0.44 0.53 0.65 0.83 1.06 1.31 1.56 1.77 2.14 2.56 2.84 2.93 2.84 2.74 2.70 2.69 2.69 2.72
0.36 0.28 0.30 0.35 0.36 0.44 0.57 0.44 0.44 0.47 0.56 0.53 0.38 0.53 0.53 0.46 0.49 0.46 0.43 0.40 0.38 0.35 0.36 0.40 0.42 0.47 0.53 0.59 0.66 0.81 0.98 1.24 1.49 1.70 2.03 2.42 2.67 2.86 2.98 2.80 2.67 2.69 2.70 2.71
0.29 0.22 0.25 0.30 0.33 0.36 0.45 0.49 0.48 0.51 0.58 0.63 0.31 0.45 0.58 0.44 0.41 0.43 0.40 0.34 0.36 0.39 0.43 0.47 0.58 0.65 0.70 0.67 0.72 0.85 0.98 1.15 1.31 1.45 1.66 1.89 2.22 2.44 2.74 2.70 2.62 2.73 2.70 2.61
0.35 0.30 0.25 0.27 0.34 0.36 0.44 0.70 0.93 0.95 0.91 0.61 0.26 0.41 0.57 0.43 0.36 0.36 0.38 0.36 0.38 0.42 0.46 0.55 0.71 0.80 0.86 0.77 0.75 0.83 1.00 1.09 1.18 1.28 1.37 1.51 1.75 1.86 2.20 2.51 2.47 2.37 2.41 2.46
0.40 0.41 0.25 0.24 0.31 0.37 0.38 0.61 0.99 1.14 0.99 0.62 0.41 0.59 0.64 0.48 0.40 0.35 0.34 0.36 0.40 0.46 0.53 0.72 0.90 0.99 1.00 0.91 0.85 0.90 1.07 1.16 1.19 1.22 1.27 1.36 1.45 1.48 1.64 1.85 1.95 1.94 1.98 2.21
0.41 0.36 0.23 0.23 0.23 0.26 0.36 0.43 0.49 0.72 0.68 0.69 0.63 0.72 0.65 0.44 0.42 0.42 0.44 0.49 0.59 0.67 0.73 0.89 1.06 1.16 1.08 0.97 0.89 0.95 1.08 1.23 1.26 1.29 1.35 1.43 1.43 1.37 1.45 1.45 1.56 1.73 1.75 1.81
0.45 0.40 0.26 0.24 0.26 0.26 0.27 0.34 0.52 0.78 1.01 1.01 0.79 0.79 0.80 0.66 0.59 0.54 0.58 0.63 0.75 0.85 0.93 1.04 1.21 1.26 1.15 1.02 0.94 1.00 1.11 1.23 1.43 1.56 1.50 1.46 1.53 1.56 1.76 1.76 1.59 1.53 1.67 1.71
0.57 0.56 0.34 0.29 0.27 0.29 0.32 0.43 0.60 0.81 0.86 1.15 1.28 1.15 0.89 0.81 0.77 0.79 0.82 0.85 0.91 1.03 1.04 1.05 1.18 1.27 1.18 1.01 0.95 0.95 1.01 1.13 1.26 1.30 1.35 1.32 1.41 1.52 1.78 1.97 1.92 1.73 1.68 1.67
0.54 0.73 0.52 0.33 0.30 0.32 0.40 0.53 0.77 1.19 1.13 1.03 1.25 1.21 0.85 0.77 0.80 0.80 0.81 0.81 0.85 0.95 0.95 1.01 1.07 1.05 0.98 0.86 0.80 0.81 0.83 0.96 1.10 1.12 1.18 1.26 1.29 1.39 1.51 1.62 1.65 1.58 1.46 1.40
0.71 0.96 0.95 0.76 0.68 0.52 0.59 0.62 0.72 0.95 1.09 1.12 1.27 1.20 0.78 0.71 0.66 0.68 0.72 0.75 0.76 0.76 0.76 0.79 0.83 0.82 0.80 0.82 0.82 0.78 0.79 0.88 0.97 1.04 1.13 1.24 1.23 1.25 1.25 1.28 1.24 1.25 1.24 1.26
0.72 0.82 0.91 0.98 0.90 0.81 0.78 0.67 0.64 0.89 1.20 1.09 1.02 0.94 0.75 0.67 0.63 0.66 0.68 0.69 0.71 0.64 0.57 0.60 0.63 0.69 0.75 0.79 0.82 0.79 0.76 0.84 0.96 1.14 1.22 1.29 1.30 1.31 1.31 1.28 1.25 1.25 1.23 1.25
0.61 0.64 0.50 0.45 0.46 0.58 0.62 0.55 0.55 0.66 0.77 0.95 0.87 0.79 0.66 0.62 0.67 0.70 0.69 0.63 0.60 0.52 0.45 0.48 0.50 0.57 0.61 0.67 0.72 0.76 0.75 0.82 0.90 1.04 1.16 1.24 1.33 1.40 1.33 1.21 1.16 1.22 1.20 1.18
0.51 0.58 0.43 0.34 0.32 0.42 0.49 0.47 0.49 0.52 0.58 0.70 0.74 0.72 0.57 0.52 0.51 0.54 0.51 0.44 0.45 0.45 0.39 0.38 0.42 0.47 0.50 0.54 0.59 0.62 0.70 0.87 0.90 0.96 1.04 1.24 1.35 1.29 1.24 1.14 1.11 1.11 1.10 1.11
0.48 0.61 0.68 0.54 0.39 0.46 0.69 0.64 0.64 0.67 0.62 0.65 0.60 0.50 0.33 0.32 0.34 0.39 0.40 0.38 0.41 0.40 0.35 0.33 0.35 0.38 0.40 0.45 0.54 0.60 0.68 0.81 0.85 0.89 1.03 1.24 1.26 1.18 1.10 1.14 1.16 1.09 1.07 1.11
0.40 0.61 0.84 0.67 0.63 0.97 1.02 0.71 0.69 0.68 0.49 0.35 0.29 0.25 0.22 0.29 0.28 0.26 0.28 0.30 0.34 0.33 0.29 0.29 0.29 0.30 0.34 0.38 0.47 0.55 0.62 0.67 0.74 0.80 0.93 1.12 1.14 1.11 1.15 1.13 1.11 1.03 0.98 0.98
0.35 0.61 0.91 0.80 0.81 0.93 0.81 0.55 0.49 0.52 0.40 0.22 0.21 0.21 0.20 0.23 0.22 0.19 0.19 0.20 0.21 0.23 0.20 0.20 0.21 0.25 0.28 0.28 0.34 0.41 0.46 0.52 0.56 0.66 0.81 0.92 0.94 1.00 1.03 1.00 1.02 0.97 0.89 0.89
0.48 0.67 1.02 0.98 1.09 1.01 0.60 0.37 0.34 0.44 0.58 0.26 0.20 0.20 0.17 0.17 0.24 0.20 0.14 0.13 0.14 0.14 0.13 0.14 0.16 0.20 0.24 0.24 0.26 0.31 0.39 0.43 0.48 0.60 0.72 0.82 0.84 0.87 0.90 0.95 0.97 0.97 0.92 0.89
0.53 0.70 0.87 0.92 1.14 0.92 0.45 0.32 0.35 0.62 0.71 0.36 0.25 0.22 0.18 0.16 0.17 0.15 0.13 0.12 0.12 0.12 0.12 0.12 0.15 0.21 0.24 0.25 0.24 0.25 0.31 0.36 0.43 0.49 0.61 0.69 0.72 0.79 0.89 0.98 1.00 1.04 1.01 0.94
0.65 0.72 0.72 0.83 1.08 0.97 0.46 0.41 0.55 0.60 0.45 0.36 0.30 0.26 0.20 0.15 0.11 0.09 0.10 0.10 0.11 0.11 0.11 0.12 0.15 0.22 0.26 0.27 0.25 0.24 0.27 0.33 0.37 0.39 0.47 0.61 0.71 0.78 0.87 0.98 1.04 1.03 1.03 1.04
0.66 0.73 0.78 0.89 1.00 0.68 0.46 0.50 0.50 0.44 0.40 0.30 0.22 0.20 0.18 0.15 0.12 0.10 0.09 0.10 0.11 0.12 0.12 0.13 0.16 0.22 0.22 0.25 0.28 0.28 0.31 0.33 0.32 0.35 0.39 0.47 0.54 0.59 0.69 0.81 0.93 0.99 0.99 0.99
0.51 0.48 0.59 0.70 0.60 0.40 0.37 0.39 0.35 0.33 0.30 0.23 0.20 0.16 0.15 0.14 0.12 0.12 0.11 0.12 0.12 0.13 0.12 0.14 0.18 0.20 0.21 0.22 0.25 0.28 0.30 0.31 0.33 0.35 0.37 0.40 0.42 0.45 0.53 0.67 0.75 0.80 0.86 0.92
0.45 0.52 0.60 0.68 0.60 0.43 0.34 0.34 0.31 0.28 0.22 0.19 0.21 0.20 0.18 0.16 0.13 0.11 0.10 0.11 0.11 0.12 0.12 0.14 0.16 0.19 0.22 0.22 0.23 0.25 0.25 0.27 0.30 0.33 0.36 0.38 0.40 0.43 0.48 0.56 0.69 0.77 0.83 0.91
0.36 0.48 0.66 0.73 0.61 0.56 0.39 0.31 0.26 0.25 0.21 0.18 0.19 0.20 0.21 0.22 0.21 0.14 0.11 0.10 0.11 0.13 0.14 0.16 0.17 0.19 0.22 0.22 0.21 0.24 0.25 0.27 0.33 0.37 0.37 0.39 0.42 0.46 0.49 0.55 0.65 0.73 0.75 0.78